Погода в Мелтоне

Австралия     37°40′59″S   144°34′45″E
темп.,
°C
ветер,
м/с
пор.,
м/с
влажн.,
%
обл.,
%
осадки,
мм/ч
давл.,
гПа
погр.,
м
5 августа, чт
чт501:00+10зюз5118084 0.1 1019969
04:00+9зюз5128810 0.1 1019487
07:00+8з489198 0.0 1020258
10:00+11зюз51180100 0.1 1021746
13:00+14зюз796447 0.0 10201235
16:00+13зюз6107144 0.1 10201083
19:00+11з5108074 0.1 1021667
22:00+10з498591 0.3 1023354
6 августа, пт
пт601:00+11з497166 0.1 1022662
04:00+11з596299 0.1 1022882
07:00+10з496698 0.0 1023712
10:00+11з586598 0.0 10241206
13:00+13з6859100 0.0 10241463
16:00+12з476297 0.0 10231448
19:00+11зсз376298 0.0 1024325
22:00+11зсз376398 0.0 1025305
7 августа, сб
сб701:00+11сз486098 0.0 1024455
04:00+10зсз4962100 0.0 1024550
07:00+10з5106399 0.0 1025766
10:00+11з596498 0.0 10261020
13:00+13зюз696397 0.0 10261158
16:00+12зюз586898 0.1 1027976
19:00+10зюз377874 0.1 1029264
22:00+7зсз229040 0.1 103124
8 августа, вс
вс801:00+6зсз229211 0.0 103120
04:00+5сз11925 0.0 103110
07:00+5сз22925 0.0 103211
10:00+11с12755 0.0 1031367
13:00+14вюв125899 0.1 10291220
16:00+13вюв117092 0.3 1028131
19:00+10ююв117873 0.2 102911
22:00+9сз2277100 0.2 102920
9 августа, пн
пн901:00+9с227795 0.0 102723
04:00+7сз22829 0.0 102722
07:00+6ссз327927 0.0 102727
10:00+12ссз3561100 0.0 1026545
13:00+15с5649100 0.0 10231607
16:00+14с465574 0.0 1022940
19:00+9с33785 0.0 102335
22:00+7ссз33830 0.0 102335